GFSSW_700_temp_000.txt.gz
Temp
5 6 6 7 7 7 7 8 9 9 10 11 11 12 12 12 13 13 13 12 13 13 13 13 13 12 12 12 12 12 11 12 13 12 12 11 11 12 11 11 11 10 12 12 11
5 6 6 6 7 7 8 8 9 10 11 11 12 12 12 12 12 13 12 12 12 13 13 13 12 12 12 12 12 11 11 12 12 12 12 11 11 12 11 12 12 12 11 11 11
5 6 6 6 7 7 8 8 9 10 11 11 11 12 12 12 12 13 12 12 12 13 12 12 12 12 12 12 12 11 11 11 12 12 12 12 11 12 12 12 12 12 12 12 12
6 6 6 7 7 7 8 9 9 10 11 11 11 11 12 12 12 12 12 12 12 12 12 12 12 12 12 12 12 12 12 12 12 12 12 12 10 12 11 11 11 13 12 12 12
6 6 7 7 7 8 9 9 10 10 10 11 11 11 11 11 12 12 12 12 12 12 12 12 12 11 11 11 12 12 11 12 13 13 12 11 11 11 12 12 13 12 11 12 12
6 6 7 7 7 8 9 9 10 10 10 11 11 11 11 11 11 12 12 12 12 12 12 12 12 12 11 10 11 10 12 12 13 12 12 11 11 12 12 12 12 12 11 11 11
6 7 7 7 8 8 9 9 10 10 10 10 10 10 11 12 11 11 12 12 12 12 12 12 12 11 11 12 11 11 11 12 12 12 11 11 11 13 12 12 12 12 11 11 11
7 7 7 8 8 8 9 9 9 10 10 10 10 10 10 11 11 11 11 11 11 11 12 12 12 12 11 12 11 11 10 10 11 11 10 10 12 11 11 12 11 11 11 12 11
8 8 8 8 8 9 9 9 9 9 9 10 10 10 11 11 11 11 11 11 11 11 12 12 11 11 11 11 10 10 10 10 10 10 10 10 12 11 12 12 11 11 11 12 11
9 9 8 9 9 9 9 9 9 10 10 10 10 10 11 11 11 11 11 11 11 11 11 11 11 11 11 10 10 11 10 11 11 11 10 10 12 9 10 11 12 11 11 11 12
9 9 9 9 9 9 9 9 9 10 10 10 11 10 11 11 11 11 11 11 11 11 11 11 10 11 11 11 11 11 11 11 12 12 10 10 10 11 10 11 12 11 12 12 12
9 9 9 9 9 9 10 10 10 9 10 10 10 10 10 11 11 11 11 11 11 11 10 8 10 11 10 10 10 10 10 10 11 11 10 10 10 10 10 12 13 13 12 12 12
8 9 9 9 9 9 9 9 9 9 9 11 10 11 10 10 10 11 10 10 10 9 9 8 10 10 10 10 10 10 10 10 11 10 10 10 10 12 13 12 12 14 13 13 13
8 8 8 9 9 9 9 9 9 9 9 10 11 10 10 10 10 10 11 9 9 9 9 8 9 9 9 10 9 9 9 9 9 9 9 9 9 12 12 12 13 13 14 13 13
8 8 9 9 8 8 8 8 8 8 8 10 10 10 10 10 10 10 10 9 9 9 8 8 8 9 9 10 9 9 9 9 9 9 8 9 8 10 12 13 13 13 13 13 13
7 7 7 8 8 8 8 7 7 7 8 10 10 10 10 10 9 10 9 9 9 8 8 8 8 8 9 8 8 8 9 9 8 7 6 8 9 10 12 13 13 12 13 12 12
7 7 7 7 7 7 7 7 7 7 10 10 10 10 10 9 9 9 9 9 9 8 8 9 8 8 8 8 8 8 8 8 6 5 6 11 11 11 13 12 12 12 12 12 11
7 7 7 6 6 6 6 5 5 8 10 9 9 9 9 9 9 8 8 8 9 8 9 9 8 8 9 9 9 9 8 8 8 8 10 10 9 11 12 12 12 12 12 11 11
7 7 7 6 6 5 4 4 7 8 8 8 7 7 8 9 8 8 7 9 8 9 7 9 9 10 9 10 9 8 6 8 8 8 8 10 11 11 11 12 11 12 12 11 11
8 7 7 7 6 5 3 4 5 7 6 6 6 7 8 9 8 7 7 8 9 8 8 9 9 10 9 8 8 7 7 6 6 6 6 10 11 12 12 13 12 12 11 11 10
7 7 7 6 4 4 4 4 4 4 5 4 5 5 5 6 7 8 8 8 8 8 9 8 8 8 8 7 8 7 7 7 7 8 7 8 10 12 12 12 11 12 11 11 10
6 5 4 3 3 3 2 3 3 3 3 4 3 3 4 5 6 6 6 8 8 8 8 8 7 7 7 8 8 8 8 8 7 8 9 9 9 11 12 11 11 10 11 10 10
5 3 3 1 2 1 1 2 3 3 3 2 2 3 4 3 3 4 5 7 6 7 7 7 7 7 7 7 6 6 6 6 6 7 8 8 9 11 10 11 10 10 10 10 9
3 2 1 -0 0 -1 -1 -0 0 1 2 1 0 0 1 1 2 2 3 4 5 5 6 6 6 7 6 7 7 5 6 7 6 6 7 7 8 9 9 10 10 9 9 9 8
1 -1 -1 0 1 -1 -1 -0 -1 -1 -0 0 0 -0 -1 -1 -1 -0 0 1 3 3 4 4 5 6 6 7 8 8 7 8 6 7 6 7 8 8 8 8 9 9 9 8 7
0 -0 -1 -1 -1 -1 -1 -1 -2 -2 -1 -1 -1 -1 -1 -2 -2 -2 -2 -2 -1 2 0 1 0 2 4 5 6 6 7 8 7 7 6 6 7 9 8 8 9 8 7 7 7
-1 -1 -1 -1 -1 -1 -2 -4 -3 -3 -3 -2 -2 -2 -2 -3 -3 -3 -3 -3 -3 -3 -2 -2 -3 -2 0 3 5 6 6 7 8 7 7 6 9 8 8 8 8 8 8 8 7

GFSSW_700_temp_003.txt.gz
Temp
5 6 7 7 7 7 8 8 9 10 11 11 12 12 12 12 13 13 13 13 13 13 13 13 13 13 12 12 12 12 12 12 12 12 12 12 11 11 11 10 11 11 12 11 12
5 6 7 7 7 7 8 9 10 10 11 12 12 12 12 12 13 13 13 13 13 13 13 13 13 13 12 12 12 12 12 12 12 12 12 12 11 11 11 11 11 11 12 11 12
5 6 6 7 7 7 8 9 10 11 11 12 12 12 12 13 13 13 13 13 13 13 13 13 12 12 13 12 12 12 12 12 12 11 12 12 12 12 12 12 13 12 12 12 12
5 6 6 7 7 8 9 9 10 11 12 12 12 12 12 13 12 13 13 13 13 13 13 13 13 12 13 12 12 12 12 12 12 12 11 12 12 12 12 13 13 13 12 12 12
6 6 7 7 7 8 9 10 10 11 11 12 12 12 12 13 13 13 13 13 13 13 13 13 12 12 12 12 12 12 12 12 13 12 12 12 12 12 12 12 13 13 12 11 12
6 6 7 7 8 8 9 9 10 11 11 12 12 12 12 12 12 12 13 13 13 13 12 12 12 13 12 12 12 12 12 13 13 13 12 12 12 12 13 12 12 12 12 12 12
6 7 7 7 8 8 9 9 10 10 11 11 12 12 12 11 12 12 12 12 12 12 12 12 12 12 12 12 12 11 12 12 13 13 12 12 12 14 12 12 12 12 12 12 12
7 7 7 8 8 8 9 9 9 10 10 10 11 11 11 11 11 11 12 12 12 12 12 11 11 11 11 12 11 11 11 12 13 12 12 12 13 13 12 12 12 12 11 12 12
8 8 8 8 9 9 9 9 10 10 10 10 10 10 11 11 11 11 11 11 11 11 11 11 11 11 11 11 11 10 11 12 12 12 11 11 12 12 12 12 11 12 11 11 11
7 8 8 9 9 9 10 10 10 10 10 10 10 10 11 11 11 11 11 11 11 11 11 11 11 11 11 11 11 12 11 11 11 11 11 11 12 11 11 12 12 12 12 11 12
8 8 8 8 9 9 9 10 10 10 10 10 11 10 11 11 11 11 11 11 11 11 11 11 10 12 12 12 12 11 10 10 11 11 11 11 11 11 11 11 12 12 13 12 13
8 9 9 9 9 9 9 9 9 9 10 10 10 11 11 11 11 11 11 11 11 11 10 10 11 12 10 10 9 10 10 10 11 11 10 11 11 10 11 11 13 13 13 12 12
8 8 9 9 9 9 9 9 9 9 10 11 11 11 10 10 10 11 11 11 11 11 11 10 11 10 10 9 9 10 9 10 10 10 9 9 10 10 11 12 13 13 13 12 12
9 9 9 9 9 9 9 9 9 9 9 10 10 11 10 10 10 10 11 10 10 11 10 8 10 9 9 9 9 10 10 9 9 9 9 10 9 9 11 12 12 13 13 13 13
8 9 8 9 8 8 8 8 9 9 6 10 10 10 10 10 10 10 10 9 10 10 9 9 8 9 9 10 9 9 9 9 9 9 9 8 8 9 10 12 13 13 13 13 13
8 8 8 8 8 8 8 8 8 8 8 9 9 10 10 9 9 9 9 9 9 8 8 9 8 8 9 9 9 9 8 8 8 8 5 7 8 10 10 12 13 14 13 12 13
8 8 7 7 7 7 7 7 7 7 9 9 9 9 9 9 9 9 9 8 8 8 9 9 9 8 8 8 8 8 8 7 5 3 3 9 9 10 11 12 12 13 13 13 13
9 8 8 7 6 6 6 6 6 8 8 7 7 7 7 7 8 9 8 8 8 7 7 8 8 9 9 9 10 9 8 7 3 2 7 9 8 10 11 12 12 12 12 12 12
9 9 8 7 7 6 5 5 6 7 7 7 7 7 7 7 7 7 7 7 8 8 7 7 8 9 9 10 10 8 7 9 8 8 6 9 10 10 11 11 12 12 12 12 12
9 9 8 8 6 5 4 4 5 5 6 6 4 5 5 7 6 6 6 7 8 8 8 7 6 8 8 8 8 7 8 6 6 4 3 8 9 10 11 12 12 12 12 12 12
9 8 7 6 5 4 3 3 3 3 3 3 3 3 3 4 5 6 5 6 7 7 7 7 7 7 8 7 8 7 6 6 7 7 2 4 7 10 11 11 12 12 12 12 11
8 6 5 5 4 3 2 1 1 1 2 2 2 3 3 3 3 4 4 4 4 5 5 6 6 7 7 8 7 7 9 8 6 5 7 8 8 10 11 11 12 12 11 11 11
7 5 5 4 2 1 0 0 1 1 1 2 1 1 2 2 1 2 2 3 3 3 2 4 5 6 7 7 7 6 6 7 7 7 7 7 8 9 9 10 11 11 11 11 10
3 3 3 2 1 -0 -1 -0 -0 -0 0 1 0 -0 -0 -1 1 -1 -0 1 2 3 1 1 2 3 4 6 7 6 6 6 6 5 6 6 7 8 8 9 10 10 10 10 10
1 0 -0 0 0 -0 -0 -1 -1 -1 -1 -1 -1 -2 -2 -2 -3 -2 -2 -2 -1 -1 -1 -1 -2 -0 3 3 3 3 6 7 6 6 6 7 6 9 9 9 9 9 9 9 9
-1 -1 -1 -1 -1 -1 -1 -1 -2 -2 -3 -3 -3 -2 -2 -3 -3 -4 -5 -3 -3 -1 -1 -3 -4 -4 -2 -2 -1 -1 2 2 6 6 7 6 7 7 8 8 8 8 8 8 8
-2 -2 -2 -3 -2 -2 -1 -2 -3 -4 -4 -3 -4 -4 -4 -3 -4 -3 -3 -4 -4 -3 -1 -2 -4 -5 -4 -1 -1 -4 -2 2 3 5 6 6 7 7 8 8 8 8 8 8 8

GFSSW_700_temp_006.txt.gz
Temp
6 6 7 7 7 8 8 8 9 10 11 11 11 12 12 13 13 13 13 13 13 13 13 13 13 13 13 13 12 12 12 12 12 12 12 12 12 11 11 11 12 12 12 12 12
6 7 7 7 7 8 8 8 9 10 11 11 12 12 12 13 13 13 13 13 13 13 13 13 13 13 13 12 12 12 12 12 12 12 12 12 12 11 11 11 12 12 12 12 12
6 6 7 7 7 7 8 9 10 11 11 12 12 12 12 13 13 13 13 13 13 13 13 13 13 12 13 13 12 12 12 12 12 12 11 11 11 11 11 12 13 13 12 12 12
6 6 7 7 7 8 8 9 10 11 12 12 12 12 13 13 12 13 13 13 13 13 13 13 13 12 12 13 12 12 12 12 12 11 11 11 11 11 12 13 12 12 12 12 13
6 6 6 7 7 8 9 10 11 11 12 12 12 12 13 13 13 13 13 13 13 13 13 13 13 12 12 12 12 12 12 12 12 12 11 11 12 12 13 13 12 12 12 12 12
6 6 6 7 7 8 9 9 10 11 11 12 12 12 12 12 12 12 13 13 13 13 12 12 12 13 12 12 12 12 12 12 12 12 12 12 12 12 13 13 12 12 12 12 13
6 6 7 7 7 8 8 9 10 10 11 11 12 12 12 12 12 12 12 12 13 12 12 12 12 12 12 12 11 11 11 12 13 12 12 12 12 13 13 13 12 13 12 12 12
7 7 7 7 8 8 8 9 9 10 10 11 11 11 12 12 12 12 12 12 12 12 12 11 11 11 11 11 11 11 11 11 13 12 12 11 13 13 12 12 12 13 13 12 12
7 8 8 8 8 9 9 9 9 10 10 10 11 11 11 12 12 11 11 11 11 11 11 11 11 11 11 10 10 10 10 11 12 12 11 11 13 13 12 11 11 12 12 12 12
8 8 8 8 9 9 9 9 10 10 10 10 11 11 11 11 11 11 11 11 11 11 11 10 10 10 11 10 10 11 11 12 12 12 11 11 12 12 11 11 11 11 11 12 12
8 8 9 9 9 9 9 9 10 10 10 10 11 11 11 11 11 11 10 10 10 11 10 10 10 11 12 12 11 11 10 10 11 11 9 10 11 12 11 10 12 12 12 12 12
9 9 9 9 9 10 10 10 10 10 11 11 11 11 11 10 10 10 10 10 10 11 10 10 10 12 11 10 10 10 9 9 10 10 10 10 10 11 11 11 12 12 12 12 12
8 9 9 9 9 9 9 10 10 10 10 11 11 11 10 10 10 10 10 9 10 10 10 9 11 11 10 10 9 10 9 10 10 10 9 9 10 10 12 11 11 12 13 13 13
9 9 9 9 9 9 9 9 9 9 10 9 10 10 10 10 10 10 10 8 8 9 9 8 10 9 9 9 9 9 10 9 9 9 9 9 8 9 10 11 11 12 12 13 13
9 8 9 8 8 9 8 8 8 9 6 9 9 9 9 8 9 10 9 8 9 9 7 8 8 9 9 10 9 9 9 9 9 9 8 8 7 8 9 10 12 12 12 13 13
9 9 9 9 9 9 8 8 8 8 8 9 8 8 8 8 8 8 8 7 8 8 8 9 9 7 8 8 8 8 8 8 8 8 5 8 7 9 10 11 12 12 12 13 13
9 9 9 8 8 8 8 8 7 7 8 7 7 7 7 8 8 8 8 8 8 7 8 9 9 9 8 7 8 8 7 6 4 3 4 8 7 9 11 11 11 11 11 13 13
9 9 9 8 8 7 7 7 6 8 8 7 6 6 7 7 7 7 6 7 7 7 6 5 6 9 9 9 9 8 8 7 3 3 7 8 7 9 10 11 11 12 11 12 12
9 9 8 8 7 6 6 5 6 6 5 5 6 6 6 6 6 5 6 6 6 7 6 6 7 7 8 8 8 7 6 7 8 7 5 8 9 10 10 10 11 11 12 12 12
9 8 8 7 6 5 5 5 5 5 4 4 3 4 4 4 4 4 4 5 5 5 5 4 4 6 6 7 7 7 7 6 5 3 3 7 7 9 10 11 11 11 11 11 12
8 7 7 6 5 5 4 3 2 3 2 2 2 2 2 2 2 2 2 3 3 4 4 3 3 4 5 5 6 7 6 5 6 6 5 5 7 9 10 11 11 11 11 11 12
8 7 6 5 4 3 2 1 1 1 1 1 1 1 1 1 1 1 1 2 2 2 1 2 1 2 3 4 5 6 6 7 5 6 5 6 7 9 10 10 10 10 11 11 12
6 5 4 4 3 2 1 1 0 1 0 -0 -1 -0 -0 -0 -1 -1 -1 -0 -0 -1 -0 -1 0 0 2 3 4 4 4 5 6 6 5 5 6 7 8 8 9 10 11 11 10
5 3 3 2 1 0 -0 -0 -0 -1 -1 -1 -1 -1 -1 -1 -1 -2 -3 -3 -2 -2 -3 -3 -3 -1 -1 -1 -2 -2 -0 -0 -1 2 5 5 6 7 7 7 8 8 9 9 10
2 1 1 1 1 -0 -1 -1 -1 -1 -1 -1 -2 -2 -3 -4 -3 -3 -3 -3 -2 -3 -3 -3 -4 -4 -3 -3 -2 -2 -3 -3 -4 -3 -4 -0 2 5 7 7 8 8 8 8 8
-0 -1 -2 -2 -2 -2 -2 -2 -2 -2 -3 -3 -3 -3 -4 -4 -5 -5 -5 -5 -5 -5 -4 -4 -5 -4 -5 -4 -3 -4 -4 -2 1 -0 -3 -1 0 3 4 5 6 7 7 8 8
-1 -2 -2 -2 -2 -2 -3 -3 -3 -3 -3 -3 -4 -4 -4 -5 -6 -5 -5 -5 -5 -5 -5 -5 -5 -5 -5 -4 -5 -4 -2 -0 -0 -0 -1 -2 -1 0 2 3 4 6 7 7 7

GFSSW_700_temp_009.txt.gz
Temp
6 7 7 7 8 7 7 8 9 10 10 11 11 11 12 12 12 12 12 13 13 13 13 13 13 13 13 12 12 12 12 12 11 12 12 12 11 11 11 11 11 11 12 11 12
7 7 7 7 7 7 7 8 9 10 10 11 11 12 12 12 12 12 13 13 13 13 13 13 13 13 13 13 12 12 12 12 12 11 12 11 11 11 11 11 12 12 12 12 12
7 7 7 7 7 7 8 9 10 11 11 11 12 12 12 12 12 13 13 13 13 13 13 13 13 13 13 12 12 12 12 12 12 12 11 11 11 11 11 11 13 12 12 12 12
6 7 7 7 7 7 8 9 10 11 11 12 12 12 12 12 12 13 13 13 13 13 13 13 13 13 12 12 12 12 12 12 12 12 12 11 11 11 11 13 12 12 12 13 14
6 6 7 7 7 8 8 10 11 11 11 12 12 12 12 12 12 12 13 13 13 13 13 13 13 13 12 12 12 12 12 12 12 12 11 11 11 11 12 12 12 12 13 13 13
6 6 6 7 7 8 9 10 10 11 11 12 12 12 12 12 12 12 12 12 13 13 13 13 12 12 12 12 12 12 12 12 12 12 11 11 11 11 14 13 13 13 13 13 13
6 6 6 6 7 7 8 9 9 10 10 11 11 12 12 11 12 12 12 12 12 12 12 12 12 12 12 11 11 12 11 11 12 12 12 11 12 14 14 13 13 13 13 13 13
7 7 7 7 8 8 8 9 9 10 10 11 11 11 11 11 11 11 11 11 11 11 11 11 11 11 11 10 10 11 11 11 12 12 12 12 13 14 13 13 13 13 12 12 12
7 8 8 9 9 9 9 10 10 10 10 11 11 11 11 12 11 11 11 11 11 11 11 11 10 10 10 10 9 10 10 11 12 12 11 11 13 13 13 12 12 12 12 12 12
8 8 8 9 9 10 10 10 10 11 11 11 11 11 11 11 11 11 11 10 10 10 10 10 10 10 10 9 10 11 11 12 12 12 11 11 12 13 12 11 11 12 12 12 13
8 8 9 9 9 9 10 10 10 10 11 10 11 10 11 11 10 10 10 10 10 10 10 10 9 11 12 11 11 11 10 10 11 11 11 11 10 13 12 10 11 12 12 12 11
8 9 9 9 9 9 9 9 9 10 10 10 10 11 10 10 10 10 10 9 9 10 9 9 9 11 10 9 9 9 9 10 11 11 9 10 10 11 11 11 11 11 11 12 12
9 9 9 9 9 9 9 9 9 9 10 11 10 10 10 10 10 9 9 9 9 9 9 9 10 10 9 9 8 9 9 9 10 10 9 8 10 11 12 12 12 11 13 13 13
9 9 9 9 9 9 9 9 9 10 10 9 9 10 10 9 9 9 9 9 8 8 8 7 10 10 9 8 9 8 9 8 8 7 7 8 7 9 10 12 13 13 13 13 13
9 9 9 9 8 8 8 8 8 9 6 9 8 8 8 8 8 9 8 9 9 8 7 8 8 8 8 9 8 8 9 8 7 7 7 7 6 9 9 10 12 13 13 12 13
10 9 9 9 9 9 8 8 8 8 8 8 8 7 8 8 8 8 8 8 8 7 7 8 8 7 8 8 8 8 7 7 7 7 4 7 7 8 9 10 11 12 12 12 12
9 9 9 9 9 9 8 8 8 8 8 6 6 7 7 7 7 7 7 7 7 6 7 7 8 8 8 8 7 7 6 5 4 2 5 7 7 9 11 11 10 10 11 12 12
9 9 9 8 8 8 7 6 6 6 6 5 5 6 6 6 6 6 5 5 6 6 5 4 5 7 8 8 8 8 7 6 2 2 6 7 6 8 9 10 10 10 11 11 12
8 8 8 8 7 7 6 6 5 4 4 4 6 5 5 4 4 4 4 4 5 5 4 4 5 5 6 6 6 6 6 7 6 7 4 6 7 8 8 9 10 10 10 11 11
8 8 8 7 7 6 6 5 4 3 3 3 3 3 2 3 3 2 2 3 3 3 2 2 1 3 3 5 5 5 5 5 4 3 3 5 6 7 9 9 10 10 10 10 10
8 8 8 7 6 5 4 3 4 3 3 2 2 1 1 0 -0 0 1 1 1 2 2 1 1 1 2 2 3 4 4 5 5 5 4 4 6 7 8 9 10 10 10 10 10
8 7 6 6 6 5 4 3 2 3 2 1 1 0 -0 -0 -1 -1 -1 -1 -1 -1 -1 -1 -1 -1 -0 0 1 2 3 4 2 2 3 4 5 6 7 7 8 9 9 9 9
8 7 6 6 4 3 2 2 2 1 1 0 -0 -1 -1 -2 -2 -2 -2 -2 -2 -2 -2 -2 -2 -3 -1 1 1 1 1 -3 -4 -4 -2 -0 2 4 5 6 6 7 7 8 9
7 6 5 5 4 3 2 2 1 0 -1 -0 -1 -1 -2 -3 -2 -3 -3 -3 -3 -3 -3 -3 -3 -4 -4 -3 -3 -3 -2 -2 -4 -5 -5 -5 -4 1 2 3 4 5 5 6 6
6 5 4 3 2 1 0 -0 -1 -1 -0 -1 -2 -2 -3 -4 -4 -4 -5 -5 -4 -3 -5 -5 -5 -5 -5 -5 -5 -5 -5 -5 -4 -5 -5 -3 -2 1 1 1 2 2 2 4 5
4 3 2 1 0 -1 -1 -2 -2 -2 -3 -3 -3 -3 -4 -4 -6 -6 -7 -7 -7 -5 -5 -5 -7 -6 -7 -5 -4 -6 -5 -5 -5 -3 -4 -5 -4 1 1 1 2 1 1 3 4
2 1 -0 -1 -2 -2 -2 -2 -2 -4 -4 -4 -5 -5 -5 -5 -7 -8 -7 -7 -6 -7 -6 -6 -6 -7 -7 -5 -6 -6 -3 -3 -4 -3 -4 -4 -3 -3 -3 -3 -2 -0 2 2 3

GFSSW_700_temp_012.txt.gz
Temp
6 7 7 7 7 7 7 8 9 9 10 10 10 11 11 11 12 12 12 12 13 13 13 13 13 13 12 12 12 11 11 11 11 11 11 11 11 12 11 11 11 11 12 12 12
7 7 7 7 7 7 8 8 9 10 10 10 11 11 11 12 12 12 12 12 13 13 13 13 13 13 12 12 12 12 11 11 11 11 11 11 11 11 11 11 11 12 12 12 13
7 7 7 7 7 7 8 8 9 10 10 11 11 11 12 12 12 12 12 13 13 13 13 13 13 13 13 12 12 12 12 12 12 11 11 11 11 11 11 11 13 11 11 12 13
7 7 7 7 7 7 8 9 10 10 11 11 11 12 12 12 12 12 12 13 13 13 13 13 13 13 13 12 12 12 13 12 12 12 11 11 11 11 11 12 12 12 12 13 13
6 6 7 7 7 7 8 9 10 11 11 11 11 12 12 12 12 12 12 12 13 13 13 13 13 12 12 13 12 13 13 12 12 12 11 12 12 11 13 12 12 12 13 13 13
6 6 6 7 7 7 8 9 10 10 11 11 11 12 12 12 12 12 12 12 12 12 12 12 12 12 12 12 12 12 12 12 12 12 11 11 12 12 14 13 13 13 13 13 13
6 6 6 6 7 7 8 8 9 10 10 11 11 11 11 11 12 11 11 11 11 12 12 11 11 11 11 11 11 12 12 12 12 12 11 11 12 14 14 13 13 13 13 13 13
7 8 8 8 8 8 9 9 10 10 11 11 11 11 11 11 11 11 11 11 11 11 11 11 11 11 11 10 10 10 11 12 13 13 12 11 13 15 13 13 13 13 13 13 13
8 8 9 9 9 10 10 10 10 11 11 11 11 11 11 12 11 11 11 11 11 11 11 11 11 11 10 10 9 10 10 11 12 12 11 11 12 14 13 13 13 12 12 12 12
7 8 8 9 9 10 10 10 11 11 11 11 11 11 11 11 11 11 10 10 10 10 10 10 10 10 11 10 10 12 11 11 11 12 11 11 12 13 12 12 12 12 12 11 12
8 8 8 9 9 9 9 10 10 10 10 10 11 10 11 11 10 10 10 10 10 10 9 9 9 11 11 10 9 9 8 8 10 10 9 9 10 11 12 11 12 12 12 12 13
9 9 9 9 9 9 9 9 10 10 10 10 10 10 10 10 10 9 9 9 9 9 8 8 9 10 9 9 8 8 8 9 10 11 9 9 10 10 11 12 12 12 12 13 13
9 9 9 9 9 9 9 9 9 9 10 10 10 9 9 9 9 9 9 9 9 9 9 8 10 9 9 8 8 8 7 8 8 9 9 8 10 11 12 12 12 12 12 13 13
9 9 9 9 9 9 9 9 9 9 9 8 8 8 8 9 9 9 8 8 9 8 8 8 10 9 8 8 9 8 9 9 8 6 6 7 6 7 9 11 11 12 13 13 12
9 9 9 9 9 9 9 9 9 9 6 8 8 7 8 8 7 8 8 8 8 7 7 8 8 8 7 9 8 7 7 7 7 6 6 5 5 10 8 9 10 12 12 12 13
9 9 9 9 8 8 8 8 8 8 7 7 7 7 8 7 7 7 7 7 7 7 7 7 7 7 8 8 7 6 6 6 6 5 3 6 6 10 10 9 11 11 11 11 11
10 10 9 9 9 9 9 8 8 8 7 5 6 6 6 6 6 6 5 5 5 4 5 6 6 7 7 7 7 7 5 4 3 1 3 7 6 8 10 9 9 9 10 11 11
9 9 9 9 9 8 8 7 7 5 6 5 6 6 6 5 5 5 5 5 4 4 4 3 4 5 5 4 4 4 5 4 2 0 3 5 6 7 8 8 8 8 9 9 11
9 9 9 8 8 8 7 6 5 5 5 5 6 5 4 4 4 4 3 3 3 3 2 2 3 3 4 4 4 4 4 5 4 4 3 4 5 6 6 7 8 8 9 9 9
9 8 8 7 7 7 6 5 4 4 3 3 3 3 3 3 3 3 2 2 2 1 1 0 -1 1 1 2 2 3 3 3 3 1 2 4 5 5 6 6 7 7 8 8 8
9 8 8 7 7 7 6 4 3 3 2 2 1 1 0 -0 -1 -1 -0 0 0 0 0 -0 -0 -0 -1 -1 -0 -0 0 1 2 3 1 -0 3 4 5 5 6 6 6 7 8
9 8 7 7 7 6 5 3 3 3 2 2 0 -0 -1 -1 -1 -2 -2 -2 -2 -2 -3 -3 -3 -3 -3 -2 -2 -1 -0 -0 -2 -2 -4 -4 -2 2 3 3 4 4 5 7 8
8 8 7 7 6 6 4 3 3 2 2 1 0 -1 -1 -2 -2 -3 -2 -2 -3 -3 -3 -4 -5 -6 -4 -3 -2 -2 -3 -3 -5 -5 -5 -4 -3 -1 0 1 1 1 1 4 5
8 7 7 6 6 5 4 3 2 1 1 0 -1 -1 -2 -2 -2 -3 -3 -4 -4 -4 -4 -5 -5 -5 -6 -5 -5 -6 -6 -5 -5 -6 -6 -5 -4 -4 -2 -1 -2 0 1 2 3
7 6 5 5 4 3 3 2 1 -0 -0 -1 -3 -3 -3 -4 -4 -5 -6 -6 -5 -5 -5 -6 -7 -7 -6 -7 -6 -6 -6 -5 -6 -6 -7 -5 -5 -4 -3 -3 -4 -4 -1 1 2
5 5 4 4 3 2 1 -0 -1 -2 -3 -3 -4 -4 -5 -5 -6 -7 -7 -8 -8 -6 -6 -6 -8 -7 -8 -6 -5 -7 -5 -5 -5 -6 -6 -6 -6 -6 -5 -5 -4 -4 -4 -3 1
5 4 3 3 2 1 0 -1 -2 -3 -3 -4 -5 -6 -6 -6 -6 -7 -8 -7 -7 -7 -6 -6 -7 -8 -8 -7 -6 -7 -4 -5 -5 -5 -5 -6 -6 -6 -5 -6 -6 -5 -4 -3 -3

GFSSW_700_temp_015.txt.gz
Temp
6 6 7 7 7 7 7 8 8 9 9 10 10 11 11 11 11 11 11 12 12 12 12 13 13 12 12 12 12 11 11 11 11 11 11 11 11 11 11 11 11 11 11 12 12
6 6 6 7 7 7 8 8 9 9 9 10 10 11 11 11 11 12 12 12 12 12 13 13 13 12 12 12 12 12 11 12 12 11 11 11 11 11 11 11 11 11 12 11 12
6 6 7 7 7 7 8 8 9 9 10 10 11 11 11 11 12 12 12 12 12 12 13 13 13 12 12 12 12 12 12 12 12 12 12 11 12 11 11 11 13 12 11 11 12
6 6 6 7 7 7 8 8 9 10 10 10 11 11 11 11 12 12 12 12 12 12 13 13 13 12 12 12 12 12 12 12 12 12 12 12 12 11 11 12 12 11 11 12 13
6 6 7 7 7 7 8 9 9 10 10 10 11 11 11 11 11 12 12 12 12 12 12 12 12 12 12 12 12 12 12 12 12 12 12 11 12 12 12 12 11 12 12 12 13
7 7 7 7 7 7 8 8 9 10 10 10 11 11 11 11 11 11 12 12 12 12 12 12 12 12 12 12 12 12 12 12 12 12 12 12 12 12 14 13 12 12 12 12 13
7 7 7 7 7 7 8 8 9 10 10 11 11 11 11 11 11 11 11 12 12 12 12 12 12 12 12 11 12 12 12 12 13 13 12 12 13 14 13 13 13 13 12 12 13
7 7 7 8 8 8 9 9 10 10 11 11 11 11 11 11 11 12 12 12 12 12 12 12 11 11 11 11 10 11 11 12 13 12 12 11 13 14 12 12 12 12 12 12 12
7 8 8 9 9 9 10 10 10 11 11 11 11 11 11 11 11 12 11 12 11 11 11 11 11 11 11 10 10 10 10 11 11 12 11 11 11 14 12 12 12 12 12 12 12
7 8 9 9 10 10 10 10 11 11 11 11 11 11 11 11 11 11 11 11 10 10 10 10 10 10 10 10 9 9 9 9 9 11 10 9 10 12 12 11 11 12 12 12 12
8 8 8 9 9 9 9 10 10 10 10 11 10 10 10 10 10 10 10 10 10 9 9 9 10 11 10 9 9 9 9 9 11 11 9 10 10 11 12 12 12 12 12 12 12
9 9 9 9 9 9 10 10 10 10 10 10 10 10 10 10 10 9 9 9 9 9 9 9 10 10 10 9 9 9 8 9 10 10 9 9 12 12 12 13 12 13 13 13 13
9 9 9 9 9 9 10 10 10 10 10 10 10 9 9 9 9 9 9 9 9 9 8 8 9 9 9 9 9 8 7 8 7 8 9 9 12 12 12 12 13 13 13 13 13
9 9 9 9 9 9 9 9 9 9 9 8 8 8 8 8 8 8 8 8 8 7 7 8 9 8 8 8 8 7 8 7 7 6 6 6 7 9 10 11 11 12 12 12 12
9 9 9 9 9 9 9 9 9 9 7 7 7 7 7 7 7 7 7 7 7 6 6 7 7 7 7 8 7 6 6 5 5 6 5 5 4 11 10 9 10 10 10 10 10
9 9 9 9 9 9 9 9 9 9 7 6 7 7 7 7 7 7 7 6 6 6 6 6 6 6 6 6 6 5 4 4 4 4 4 6 5 10 9 9 9 9 10 10 9
10 10 9 9 9 9 9 8 8 8 6 6 6 6 6 6 6 5 5 5 4 4 4 5 5 5 5 5 5 4 3 3 4 2 4 6 5 7 8 8 7 7 7 8 8
9 10 9 9 9 9 8 8 8 6 6 6 5 6 6 6 5 4 4 4 3 3 3 3 4 4 4 4 2 3 3 3 3 4 5 4 5 6 6 6 6 6 5 6 6
9 9 9 9 9 8 8 7 7 6 5 6 6 5 4 4 4 4 3 2 2 2 2 1 2 3 3 3 2 2 2 1 1 2 2 3 4 4 5 5 5 5 6 6 7
9 9 9 8 8 8 8 7 6 5 4 4 4 4 3 4 3 3 2 1 0 -0 -1 -1 -3 0 0 0 1 1 -0 -1 0 1 2 3 3 3 4 4 4 4 5 5 6
9 9 8 8 8 7 7 6 5 4 3 3 3 2 2 1 -0 -1 0 -1 -1 -0 -1 -1 -2 -1 -1 -2 -2 -2 -3 -2 -2 -1 -0 0 1 2 2 -0 -0 1 1 1 2
9 9 9 9 8 7 6 5 4 3 2 2 2 1 -0 -1 -1 -2 -2 -2 -2 -2 -3 -4 -4 -5 -4 -2 -3 -4 -4 -5 -6 -5 -6 -6 -6 -3 -3 -2 -2 -1 -1 -0 1
9 8 8 8 7 7 6 5 4 3 2 2 1 -0 -1 -1 -1 -2 -3 -3 -3 -3 -3 -4 -5 -6 -4 -3 -4 -5 -5 -6 -6 -6 -6 -6 -5 -2 -1 -2 -6 -6 -3 -1 1
8 8 7 7 6 6 5 4 3 3 2 1 1 0 -1 -2 -2 -3 -3 -3 -3 -3 -3 -4 -6 -6 -6 -6 -6 -7 -7 -7 -7 -8 -7 -7 -6 -5 -4 -5 -6 -6 -5 -4 -3
7 6 6 5 5 4 3 3 2 1 0 -0 -1 -2 -3 -4 -4 -4 -4 -4 -4 -5 -5 -7 -7 -7 -7 -7 -7 -7 -8 -5 -6 -6 -8 -6 -7 -6 -6 -6 -5 -7 -7 -6 -4
6 6 5 5 4 4 2 2 1 0 -0 -0 -2 -3 -3 -4 -5 -6 -5 -5 -6 -6 -7 -9 -9 -9 -8 -7 -7 -8 -6 -5 -5 -6 -6 -6 -7 -6 -6 -6 -5 -6 -5 -5 -5
6 5 5 4 3 3 2 1 0 1 0 -1 -3 -3 -4 -4 -5 -5 -5 -5 -6 -6 -7 -9 -9 -9 -8 -7 -8 -8 -5 -6 -6 -6 -6 -7 -7 -7 -6 -5 -6 -5 -5 -5 -5

GFSSW_700_temp_021.txt.gz
Temp
6 6 6 6 7 7 7 7 8 8 9 9 10 10 10 11 11 11 11 11 11 11 12 12 12 12 12 12 12 12 12 13 13 13 13 13 12 12 11 11 11 11 12 11 11
5 6 6 6 6 7 7 7 8 8 9 9 10 10 10 11 11 11 11 11 11 12 12 12 12 12 12 13 13 12 11 12 12 12 12 11 11 11 11 11 12 11 10 12 11
5 6 6 6 6 7 7 8 8 8 9 9 10 10 10 10 11 11 11 11 11 12 12 12 12 12 12 13 12 12 13 12 13 13 13 13 13 11 11 12 11 12 11 11 11
6 6 6 6 6 7 8 8 8 8 9 9 10 10 10 10 10 11 11 11 12 12 12 12 12 12 12 12 13 12 12 13 13 13 13 13 13 13 11 11 11 11 12 11 11
6 6 6 6 7 7 8 8 8 9 9 10 10 10 10 10 11 11 11 12 12 12 12 12 12 12 12 12 12 12 12 13 13 13 13 13 13 13 13 13 13 12 11 12 11
6 7 7 7 7 8 8 8 8 9 9 10 10 10 10 10 11 11 11 12 12 12 12 12 12 12 12 12 12 12 12 13 13 13 13 13 13 12 13 13 14 13 13 13 13
7 7 7 7 8 8 8 9 9 9 10 10 10 11 11 11 11 11 12 12 12 12 12 12 12 12 12 12 12 12 12 12 13 11 11 12 13 13 12 12 13 13 13 13 13
7 7 7 7 8 9 9 9 9 10 10 10 11 11 11 11 12 12 12 12 12 12 12 12 12 12 11 11 11 11 10 11 12 11 10 11 12 12 11 11 12 13 13 12 12
7 8 8 9 9 9 10 10 10 10 11 11 11 11 11 11 11 11 11 12 12 12 12 12 12 11 11 11 9 11 11 12 12 11 10 9 11 12 10 10 12 13 13 13 13
8 8 9 10 10 10 10 10 10 10 11 11 11 11 11 11 11 11 11 11 11 11 11 11 11 10 9 9 11 11 11 11 11 11 10 10 9 11 12 11 12 12 12 11 10
9 9 9 10 10 10 10 10 10 10 10 11 11 11 11 11 11 11 11 11 10 10 10 9 9 9 10 8 8 8 8 9 10 10 9 9 9 11 13 11 10 9 10 10 9
9 9 10 10 10 10 10 10 10 10 10 10 10 10 10 10 10 10 10 10 10 9 9 9 9 9 9 9 9 8 8 9 9 9 8 8 9 12 12 12 11 9 9 9 8
9 9 10 10 10 10 10 10 10 10 9 9 9 9 9 9 9 9 9 9 8 8 7 8 8 9 9 8 7 8 8 8 8 7 7 9 10 12 12 12 11 9 8 8 8
9 9 9 9 9 9 9 9 9 9 9 8 8 9 8 8 8 8 8 8 8 8 8 8 8 8 7 6 6 7 6 6 6 6 9 9 9 10 11 11 9 8 8 8 7
9 9 9 9 9 9 9 9 9 9 12 8 7 8 7 7 7 8 8 8 7 6 7 8 6 6 6 6 5 5 6 6 5 6 6 8 9 12 11 10 7 6 7 6 6
9 9 9 9 9 9 9 9 9 9 11 7 7 7 6 7 7 7 7 7 7 7 7 6 6 5 5 5 5 5 5 6 7 7 7 10 10 11 11 9 6 4 5 3 4
10 9 9 9 9 9 9 9 8 10 8 5 6 7 7 6 5 6 5 6 5 5 7 6 6 5 4 4 4 4 5 8 10 8 10 10 9 10 10 7 4 2 1 -0 -1
9 9 9 9 9 9 9 8 9 7 5 6 7 7 5 6 4 4 4 4 2 3 4 5 7 4 2 2 2 3 4 6 7 10 10 7 7 9 8 5 2 1 0 -0 -2
10 9 9 9 9 8 8 8 6 5 7 7 6 4 4 4 5 4 2 2 3 3 2 3 5 3 2 2 2 4 4 2 2 4 5 6 8 8 8 5 3 1 -1 -1 -2
10 9 9 9 9 8 6 7 7 7 7 6 4 5 4 3 4 3 3 3 2 2 2 1 0 2 1 1 1 2 1 1 3 4 6 8 7 6 3 0 -1 -1 -1 -2 -3
9 9 9 9 9 8 6 8 8 7 7 6 5 4 3 4 4 2 2 3 2 1 0 -1 -1 2 1 1 1 1 1 0 0 1 3 3 3 3 -0 -2 -3 -3 -3 -3 -4
9 9 9 9 8 8 8 8 7 7 6 6 5 5 4 3 3 1 1 2 2 0 -2 -3 -1 -1 -0 -0 -1 -2 -1 -2 -2 -1 -1 -2 -2 -2 -2 -3 -3 -3 -3 -3 -4
9 9 8 8 6 7 7 7 6 6 5 5 4 4 3 3 2 1 -1 1 0 -1 -4 -4 -2 -2 2 -1 -2 -2 -2 -2 -3 -4 -4 -3 -3 -3 -3 -3 -3 -3 -4 -4 -5
9 9 8 8 8 7 7 6 6 5 5 4 3 3 3 2 2 -0 -2 -3 -1 -2 -2 -4 -5 -3 -1 -1 -2 -3 -3 -4 -4 -4 -4 -4 -4 -3 -3 -3 -3 -4 -4 -5 -5
9 9 9 8 8 7 7 6 5 4 4 3 3 3 2 1 -1 -2 -1 -3 -2 -3 -3 -5 -5 -4 -4 -4 -5 -5 -5 -5 -5 -4 -4 -4 -4 -3 -3 -3 -4 -5 -5 -6 -6
8 8 9 8 8 7 6 5 4 4 3 3 2 2 1 0 -1 -1 -2 -4 -4 -5 -5 -6 -6 -6 -6 -6 -6 -5 -5 -5 -5 -4 -4 -3 -3 -3 -4 -5 -5 -6 -6 -6 -6
8 8 8 8 7 6 6 4 4 3 3 2 2 1 1 -0 -1 -1 -1 -2 -3 -4 -6 -6 -6 -7 -6 -5 -5 -5 -3 -3 -4 -4 -4 -4 -4 -5 -5 -6 -6 -7 -7 -6 -6

GFSSW_700_temp_024.txt.gz
Temp
5 6 6 7 7 7 8 8 9 9 9 9 9 10 10 10 10 11 11 11 11 11 12 12 12 12 12 12 12 12 12 13 12 13 13 13 13 13 12 12 12 12 11 11 11
5 6 6 7 7 7 7 8 8 9 9 9 9 10 10 10 10 11 11 11 11 11 12 12 12 12 12 12 13 13 12 13 12 12 13 13 13 13 12 12 12 12 12 12 12
5 5 6 6 7 7 7 8 8 8 8 9 9 10 10 10 11 11 11 11 11 11 12 12 12 12 12 13 12 13 13 13 13 13 13 13 13 13 12 13 12 13 12 12 11
5 6 6 6 6 7 7 7 8 8 8 9 10 10 10 10 10 11 11 11 11 12 12 12 12 12 12 12 12 12 13 13 13 13 13 13 13 13 13 13 13 13 13 12 11
6 6 6 6 7 7 7 7 8 8 9 9 10 10 10 10 11 11 11 11 12 12 12 12 12 12 12 12 12 12 13 13 13 13 13 13 13 13 14 14 14 14 14 13 13
6 6 7 7 7 7 8 8 8 9 9 10 10 10 10 11 11 11 11 11 12 12 12 12 12 12 12 13 12 12 12 13 13 13 13 13 13 13 14 13 13 14 13 13 13
6 7 7 7 8 8 8 8 9 9 9 10 10 10 11 11 11 11 11 12 12 12 12 12 12 12 12 12 12 12 12 13 13 13 10 11 13 13 12 11 11 12 12 11 11
7 7 7 7 8 8 8 9 9 9 10 10 10 11 11 11 11 12 12 12 12 12 12 12 12 12 12 12 12 12 11 12 12 12 11 11 13 12 11 11 11 12 12 12 11
7 8 8 9 9 9 9 10 10 10 10 10 11 11 11 11 12 12 12 12 12 12 12 12 12 12 12 11 11 12 11 12 12 12 11 10 11 11 10 10 10 10 10 9 9
8 8 9 9 10 10 10 10 10 10 10 10 10 10 11 11 11 11 12 12 12 12 12 12 11 11 11 9 10 10 10 11 10 11 10 10 10 11 12 10 10 9 9 9 9
8 8 9 9 9 9 9 9 9 10 10 10 11 11 11 11 11 11 11 11 11 11 10 9 10 9 9 10 10 10 9 9 9 9 9 9 9 12 12 11 10 9 9 10 10
9 9 10 10 10 10 10 10 10 10 10 10 10 10 10 10 10 11 10 10 10 10 8 9 9 9 9 9 9 9 8 8 9 9 9 10 10 11 12 11 10 9 9 9 9
9 9 10 10 10 10 10 10 10 10 10 10 10 10 9 9 9 10 9 9 9 9 8 8 9 8 9 8 7 7 8 8 7 8 9 8 10 11 11 11 9 9 9 9 8
9 9 9 9 9 9 9 9 9 9 9 8 8 9 9 8 8 8 9 9 9 8 8 8 8 8 7 7 7 6 7 7 7 6 7 8 7 10 9 10 8 8 7 7 7
9 9 9 9 9 9 9 9 9 9 10 7 8 8 8 8 7 8 8 8 8 8 7 8 7 6 7 6 6 6 6 6 7 6 6 7 8 11 11 7 5 4 4 4 5
9 9 9 9 9 9 9 9 9 9 9 7 7 7 6 7 7 7 7 8 8 9 8 7 7 6 6 7 6 5 5 6 9 7 7 9 8 10 9 6 3 2 2 1 0
10 9 9 9 9 9 9 9 9 9 8 6 6 7 7 6 5 6 6 7 6 7 6 7 7 6 6 6 5 5 5 6 8 6 6 9 8 9 7 4 2 1 -0 -0 -0
10 10 9 9 9 9 9 9 8 7 6 7 7 7 5 6 5 5 5 5 4 5 5 5 7 5 3 4 4 5 3 5 5 6 5 8 6 7 6 2 1 1 -0 -0 -0
9 9 9 9 9 9 8 7 7 6 7 7 7 5 5 6 6 5 5 3 5 5 5 3 5 5 4 4 4 4 4 3 2 3 4 5 7 7 6 3 3 2 1 -0 -2
9 9 9 8 8 8 8 7 8 8 7 7 5 6 5 4 5 5 4 4 4 4 3 1 1 4 3 3 3 2 2 2 2 2 3 6 6 5 5 4 3 1 -1 -1 -0
9 9 9 8 8 7 7 7 8 7 7 7 6 4 4 5 5 4 3 3 3 3 2 1 -0 3 2 2 2 2 1 1 1 1 1 0 2 3 1 -1 -1 -1 -2 -3 -3
9 9 9 8 8 8 8 8 7 7 7 6 6 5 5 4 4 3 2 2 2 2 1 -0 0 -1 2 1 1 1 -0 -0 0 0 -1 -3 -2 1 -2 -2 -3 -3 -3 -3 -4
9 8 8 8 6 8 8 7 7 7 6 6 6 5 4 4 3 2 1 2 2 1 0 -1 -1 -2 2 -0 -1 -1 -1 -2 -2 -2 -3 -4 -3 -2 -3 -3 -3 -3 -3 -4 -4
9 9 8 8 8 8 8 7 7 6 6 5 5 5 4 3 2 1 -0 -1 0 -0 -0 -2 -2 -2 -2 -1 -2 -3 -3 -3 -3 -3 -4 -4 -4 -4 -4 -3 -3 -3 -4 -4 -5
8 8 8 8 8 8 8 7 7 6 5 5 4 4 3 3 1 -1 -1 -1 -2 -3 -2 -3 -4 -4 -4 -3 -3 -4 -5 -4 -4 -4 -4 -4 -4 -4 -3 -4 -4 -4 -5 -5 -5
8 8 8 8 8 8 8 7 6 6 5 5 4 4 3 3 2 1 -0 -1 -2 -4 -3 -5 -4 -4 -4 -3 -5 -4 -4 -4 -4 -4 -4 -3 -3 -4 -4 -4 -5 -5 -6 -6 -6
7 7 7 7 7 7 7 6 6 5 5 4 4 3 3 3 2 2 1 0 -0 -1 -3 -4 -4 -6 -6 -5 -6 -5 -3 -3 -4 -4 -4 -4 -5 -5 -5 -6 -6 -6 -7 -7 -7

GFSSW_700_temp_027.txt.gz
Temp
3 4 6 6 7 8 8 9 9 9 9 9 9 9 10 10 10 11 11 11 11 11 11 12 12 12 12 12 12 12 12 13 13 12 12 13 13 13 12 12 12 13 12 12 11
4 5 6 6 7 8 8 9 9 9 9 9 9 9 10 10 10 11 11 11 11 11 11 12 12 12 12 12 13 12 13 13 12 12 13 13 13 13 13 13 13 13 12 11 11
4 5 6 6 7 8 8 9 9 9 9 9 9 10 10 10 11 11 11 11 11 11 11 12 12 12 12 12 12 13 13 13 13 13 13 13 13 13 13 14 13 13 13 11 11
5 5 6 6 7 8 8 8 8 8 9 9 9 10 10 10 11 11 11 11 11 11 11 12 12 12 12 13 12 13 13 13 13 13 13 13 13 13 13 14 13 13 12 12 11
6 6 6 6 7 7 7 7 7 8 8 9 9 10 10 11 11 11 11 11 11 12 12 12 12 13 13 13 13 13 13 13 13 13 13 13 13 13 14 13 13 13 13 12 11
6 6 6 7 7 7 7 7 7 8 9 9 9 10 10 11 11 11 11 12 12 12 12 12 12 12 12 12 12 13 13 13 13 13 13 12 13 12 12 12 12 12 12 11 10
6 7 7 7 7 7 7 8 8 9 9 9 10 10 11 11 11 11 11 12 12 12 12 12 12 12 12 12 12 12 13 13 12 12 12 11 12 12 11 12 11 10 10 10 10
7 7 7 7 8 8 8 8 9 9 9 10 10 10 11 11 12 12 12 12 12 12 12 12 12 12 12 12 12 12 12 11 11 11 10 10 11 11 11 11 11 10 10 10 10
7 7 8 8 8 8 9 9 9 10 10 10 10 11 11 11 11 11 11 12 12 12 12 12 12 11 11 11 11 10 10 10 11 11 10 10 11 11 11 10 10 9 9 9 9
7 8 8 9 9 9 9 9 10 10 10 10 10 10 10 11 11 11 11 11 11 11 11 11 11 11 10 10 9 9 10 10 10 10 9 10 11 11 11 10 9 9 9 9 9
8 8 8 9 9 9 10 10 9 9 9 10 10 11 11 11 11 11 11 11 11 11 11 11 10 9 9 9 9 9 9 9 9 9 8 9 10 10 11 11 10 9 9 9 9
9 9 9 9 9 10 10 10 10 10 10 10 10 10 10 10 11 11 11 11 11 10 9 9 8 8 8 8 9 9 9 9 9 8 8 9 10 9 11 11 10 9 9 9 9
9 9 9 9 9 9 10 10 10 10 10 9 10 9 9 9 10 10 9 9 9 9 9 8 8 8 8 8 8 8 7 7 7 8 8 7 9 7 8 8 7 7 8 9 9
9 9 9 9 9 10 9 9 10 9 9 8 8 8 8 8 8 8 9 9 9 9 9 8 8 7 8 7 7 7 7 7 7 6 6 7 5 7 6 6 5 6 7 7 8
9 9 9 9 9 9 9 9 9 9 7 7 7 7 7 8 8 8 8 8 8 8 8 8 7 7 7 7 7 7 6 6 7 6 4 6 6 5 4 3 3 3 4 5 6
9 9 9 9 9 8 9 9 9 9 8 7 8 7 7 7 8 7 8 8 8 8 8 8 7 7 7 7 6 6 6 7 8 7 4 6 6 4 4 2 1 1 1 2 2
9 9 9 9 9 9 9 9 9 8 7 7 7 7 6 6 6 6 7 8 8 7 8 7 7 6 6 6 5 5 5 5 5 4 3 7 7 4 1 1 1 1 1 1 1
9 9 9 9 9 9 9 8 8 7 7 7 7 7 7 6 6 6 5 5 5 5 5 5 6 5 5 5 5 4 4 4 2 1 3 8 6 3 1 1 1 1 0 -0 -1
9 9 9 9 9 8 8 8 8 7 7 7 7 6 5 6 5 5 4 4 4 5 5 5 5 5 4 4 4 4 4 3 2 2 2 4 4 1 1 2 2 1 0 -1 -1
9 9 9 8 8 8 8 8 8 7 7 7 6 6 5 5 5 5 5 4 5 4 3 3 3 4 4 4 3 2 2 2 2 -0 -1 2 4 5 2 2 2 1 -0 -2 -3
9 9 8 8 8 8 8 8 8 7 7 7 7 7 6 6 5 5 4 4 4 3 3 2 1 3 3 2 1 2 1 1 1 1 -2 -4 1 4 3 3 2 2 1 -1 -3
8 9 8 8 7 8 8 8 8 8 7 7 6 6 5 5 5 4 4 4 4 3 3 2 1 0 3 2 1 0 1 0 -1 -0 -0 -2 -1 1 1 0 -1 -3 -3 -4 -4
8 8 8 8 8 8 8 8 8 7 7 7 6 6 5 5 4 4 4 4 3 3 2 1 -1 -0 1 0 -1 -1 -1 -2 -2 -2 -3 -5 -1 -0 -0 -2 -3 -4 -4 -4 -4
8 8 8 8 8 8 7 8 7 7 7 6 6 6 5 5 4 4 3 4 3 3 2 1 0 -0 1 1 -1 -2 -1 -2 -3 -4 -4 -4 -4 -2 -3 -4 -4 -4 -5 -5 -5
8 8 8 8 8 8 8 8 7 7 6 6 6 6 5 5 4 4 3 3 2 2 -0 -1 -0 -2 -0 -1 -2 -2 -3 -3 -5 -5 -5 -3 -5 -4 -4 -4 -5 -5 -5 -5 -5
7 7 7 8 7 7 7 7 7 6 6 6 6 5 5 5 4 3 2 2 1 -0 -0 -3 -2 -3 -2 -2 -2 -3 -4 -4 -4 -4 -4 -4 -4 -4 -4 -4 -5 -5 -5 -6 -6
6 6 7 7 7 7 7 6 6 6 5 5 5 5 5 4 4 3 3 2 1 -0 -2 -3 -3 -4 -4 -4 -4 -3 -2 -4 -4 -4 -4 -5 -4 -5 -5 -5 -6 -6 -6 -7 -7

GFSSW_700_temp_030.txt.gz
Temp
3 4 5 6 7 8 8 8 8 8 8 8 9 10 10 10 10 10 11 11 11 11 11 11 11 12 12 12 12 12 12 13 13 13 13 13 13 13 13 13 13 13 12 11 11
3 4 5 6 7 8 8 9 9 9 8 9 9 10 10 10 10 11 11 11 11 11 11 11 12 12 12 12 12 13 13 13 13 13 13 13 13 13 13 13 13 12 12 11 11
4 4 5 6 7 8 8 9 9 9 9 9 9 10 10 10 10 11 11 11 11 11 11 11 12 12 12 12 13 13 13 13 13 13 13 13 13 13 13 13 12 13 12 12 11
4 5 5 6 7 8 8 9 9 9 9 9 9 10 10 10 11 11 11 11 11 11 11 11 12 12 12 12 13 13 13 13 13 13 13 13 13 13 13 12 13 12 12 12 11
5 5 6 7 7 8 8 8 8 9 9 9 9 10 10 10 11 11 11 11 11 11 11 12 12 12 12 13 12 12 13 13 13 13 13 13 12 11 11 12 12 11 11 9 10
6 6 6 7 7 7 8 8 8 8 8 9 9 10 10 10 11 11 11 11 11 12 12 12 12 12 12 12 12 12 12 12 12 12 12 11 11 12 11 11 11 10 10 10 10
6 7 7 7 7 7 7 7 7 8 9 9 10 10 10 10 11 11 11 11 11 11 11 11 12 12 12 12 12 12 12 12 11 11 11 11 12 11 11 10 10 9 9 9 9
6 6 7 7 7 7 7 7 8 9 9 10 10 10 11 11 11 11 11 11 11 11 11 11 12 12 12 12 11 11 11 11 11 10 10 10 11 10 9 9 9 9 9 10 10
6 7 7 7 7 7 8 8 8 9 10 10 10 10 10 11 10 11 11 11 11 11 11 11 11 11 11 11 11 10 10 10 10 10 10 10 10 9 10 9 9 9 9 9 9
7 7 7 8 8 8 8 9 9 9 10 10 10 10 10 11 11 11 11 11 11 11 11 11 11 11 10 10 9 9 9 9 9 9 10 11 9 9 10 10 10 10 9 9 8
7 8 8 8 8 9 9 9 9 9 9 10 10 10 10 10 11 11 11 11 11 11 11 11 10 10 9 9 8 8 8 8 9 9 9 9 8 8 9 9 9 9 8 8 8
8 8 8 8 9 9 9 9 9 10 10 10 10 10 10 10 11 10 10 10 10 10 10 10 9 9 8 8 7 8 8 8 9 8 8 8 7 6 6 7 7 7 7 7 7
8 9 9 9 9 9 9 9 10 10 10 10 10 10 9 9 10 10 9 9 9 9 9 9 8 8 8 8 8 8 8 8 7 9 8 7 5 4 4 5 6 6 6 6 6
9 9 9 9 9 10 10 10 10 9 9 9 9 9 8 8 8 8 8 8 9 9 9 8 8 7 7 7 7 8 7 7 7 6 6 6 4 3 2 4 4 4 4 4 5
9 9 9 9 9 9 9 9 9 9 7 8 8 7 7 8 7 8 8 8 8 8 8 8 7 6 7 7 6 6 7 7 7 5 4 6 4 2 2 3 3 3 3 3 3
9 9 9 9 9 9 9 9 9 8 8 7 7 7 7 7 7 7 7 8 8 8 8 7 7 7 7 6 6 6 6 7 7 6 3 6 5 1 2 2 2 1 1 1 1
9 8 8 8 9 9 8 8 8 8 7 7 6 6 6 6 6 7 7 8 8 8 8 8 7 6 6 5 5 5 6 6 5 3 3 6 5 5 3 2 1 1 1 1 1
9 8 8 8 8 8 8 8 8 7 7 7 7 7 6 6 6 6 7 6 7 6 6 6 5 5 5 5 4 4 4 4 3 1 2 6 5 3 2 1 0 -0 -0 -0 0
9 8 8 8 8 8 8 8 8 8 7 7 7 6 6 6 6 6 6 6 6 5 5 5 5 5 4 4 4 4 3 3 2 2 0 3 2 1 1 0 0 0 0 0 0
9 8 8 8 8 8 8 8 8 7 7 7 7 7 7 6 6 6 5 5 5 5 5 4 4 5 4 4 3 3 2 2 2 -0 -1 1 2 4 1 -0 -0 0 0 -0 -1
8 8 8 8 8 8 8 8 8 8 7 7 7 7 6 6 5 5 5 5 4 4 4 4 4 5 4 3 3 2 1 1 1 1 -2 -4 1 4 2 1 1 0 -1 -0 -1
8 8 8 8 8 8 8 8 8 8 7 7 7 6 6 6 6 5 5 5 5 4 4 4 3 4 4 3 2 2 1 1 -0 -0 -1 -3 -1 1 1 1 -0 -2 -2 -3 -4
8 8 8 8 8 8 8 7 7 7 7 7 6 6 6 6 6 6 5 5 4 4 3 3 2 2 1 1 1 1 -0 -0 -2 -2 -3 -4 -1 2 1 0 -2 -2 -4 -5 -5
8 8 8 8 8 8 8 8 7 7 7 7 6 6 6 6 6 6 5 5 5 4 3 2 2 2 3 2 0 0 -0 -1 -2 -4 -4 -4 -1 1 -1 -2 -3 -4 -5 -5 -5
8 7 8 8 8 8 8 8 7 7 7 6 6 6 6 5 5 5 5 4 5 4 4 2 1 1 2 1 0 1 -1 -1 -3 -3 -5 1 -3 -2 -3 -4 -5 -4 -5 -5 -5
7 7 7 7 7 7 7 7 7 7 7 6 6 5 5 5 5 5 4 4 4 3 2 2 -0 -1 1 1 0 -0 -0 -1 -3 -3 -4 -4 -3 -3 -4 -4 -5 -5 -6 -7 -7
6 6 6 6 6 6 6 6 6 6 6 6 6 5 5 4 4 4 4 3 3 2 1 -1 -1 -2 -1 -1 -2 1 2 -1 -3 -3 -4 -4 -3 -4 -4 -5 -6 -7 -7 -7 -8

GFSSW_700_temp_036.txt.gz
Temp
0 3 4 5 5 6 7 8 8 8 8 8 9 9 10 10 9 10 10 10 10 11 11 11 11 11 12 12 12 12 12 12 12 13 12 12 12 12 12 11 11 11 12 12 12
2 3 3 5 5 6 7 7 8 8 8 8 9 9 10 10 10 10 10 10 10 11 11 11 11 11 11 12 12 12 12 12 12 12 12 12 12 12 11 10 12 11 11 11 12
2 3 3 5 5 6 7 7 8 8 8 8 9 9 9 10 9 10 10 10 10 11 11 11 11 11 11 12 12 12 12 12 12 12 12 12 12 11 10 11 11 11 11 11 11
3 3 4 5 5 6 7 7 7 7 8 8 9 9 10 10 10 10 10 10 11 11 11 11 11 11 11 11 12 11 12 12 12 11 12 12 11 10 10 10 10 10 10 10 11
3 4 5 4 6 7 7 7 7 7 8 8 9 9 10 10 10 10 10 10 11 11 11 11 11 11 11 11 11 12 12 12 11 12 12 11 10 10 10 9 9 9 10 10 10
4 5 5 5 6 7 7 7 7 7 8 8 9 9 10 10 10 10 11 11 11 11 11 11 11 11 11 11 11 12 12 11 11 11 10 10 10 9 9 10 9 9 9 9 9
5 5 5 6 7 7 8 8 8 8 8 8 9 9 9 10 10 10 10 11 11 11 11 11 11 11 11 11 11 11 11 11 11 10 10 10 9 9 9 9 8 9 9 9 9
5 5 6 7 7 7 8 8 8 8 8 8 9 9 9 9 10 10 10 10 10 11 11 11 11 11 11 11 11 11 11 10 10 9 10 9 9 9 8 8 8 8 8 9 8
6 6 6 7 7 8 8 7 8 8 8 8 9 9 9 9 10 10 10 10 11 11 11 11 11 11 11 11 10 10 10 9 9 9 9 9 8 8 8 8 8 9 9 8 8
6 7 7 8 8 7 7 7 7 8 8 8 8 9 9 9 10 10 10 10 11 11 11 11 11 10 10 10 9 9 8 8 8 8 8 8 8 8 8 8 8 8 7 7 6
6 6 6 6 6 6 7 7 8 8 8 9 9 9 9 9 10 10 10 10 10 10 10 10 10 10 9 9 8 8 8 8 8 7 6 7 8 8 8 7 6 6 6 6 6
6 6 6 6 6 7 7 8 8 9 9 9 9 9 9 9 9 10 10 10 10 10 10 10 9 9 8 8 7 8 8 7 7 6 6 6 7 6 6 6 5 4 4 5 5
7 7 7 7 7 7 8 8 8 9 9 9 9 9 9 9 9 9 10 10 9 9 9 9 8 8 7 7 7 7 7 6 6 5 5 5 5 6 5 5 5 4 4 3 3
7 7 7 8 8 8 8 8 9 8 9 9 8 9 9 9 9 9 9 9 9 9 8 8 8 8 7 7 7 7 6 6 6 5 5 4 5 6 6 5 4 4 5 5 4
8 8 8 8 8 8 8 8 8 8 7 8 8 8 8 8 8 8 8 8 8 8 8 8 7 7 7 6 6 6 6 6 6 5 4 4 2 7 6 5 4 4 4 4 4
8 8 8 8 8 8 8 8 8 8 8 8 7 7 7 7 7 7 8 8 8 8 8 7 7 7 6 6 6 6 7 7 6 5 3 4 3 6 6 6 4 4 3 2 2
8 8 8 8 8 8 8 8 8 8 8 7 7 7 7 7 7 7 7 7 7 7 7 7 7 7 6 6 6 6 6 6 4 3 3 4 3 6 5 5 4 3 3 2 1
8 8 8 7 7 7 7 7 7 8 8 7 7 7 7 7 7 7 7 7 7 7 7 7 7 6 6 6 6 6 5 5 4 1 1 4 4 5 5 4 4 3 3 3 1
7 7 7 7 7 7 7 7 8 8 7 7 7 6 6 6 6 6 7 6 7 7 7 7 7 6 6 6 5 5 5 4 3 1 -1 3 4 4 5 5 4 3 3 2 1
7 7 7 7 7 7 7 7 7 8 7 7 7 6 6 6 6 6 6 6 6 6 6 6 6 6 6 6 5 5 4 3 2 0 -0 1 3 6 5 4 3 2 1 1 0
7 7 8 7 7 7 7 7 7 8 7 7 7 6 6 6 6 5 6 6 6 6 5 5 6 6 5 5 5 4 3 2 2 1 -2 -4 2 5 4 3 2 1 -0 -1 -1
7 7 7 7 7 7 7 7 7 7 7 7 7 6 6 6 6 6 6 6 6 5 5 6 5 5 5 5 5 4 3 2 1 1 -0 -3 1 4 3 2 0 -1 -1 -1 -1
7 7 7 6 6 7 7 7 7 7 7 7 6 6 6 6 6 6 6 6 6 5 6 5 4 4 5 4 4 4 4 2 1 0 -0 -3 2 4 3 2 -0 -1 -2 -1 -2
7 7 7 7 7 7 7 7 7 7 7 6 6 6 6 6 6 6 6 6 6 6 5 4 4 4 5 5 3 3 3 1 -0 -1 -0 1 2 4 2 1 0 -1 -1 -1 -3
7 7 7 7 7 7 7 7 7 6 6 6 6 6 6 6 6 6 6 5 5 5 4 3 3 4 4 3 2 3 3 1 -0 -0 -2 4 1 4 2 -0 -0 -1 -2 -3 -4
6 6 6 6 6 6 6 6 6 6 6 6 6 6 6 6 5 5 5 4 4 4 3 3 2 3 3 4 2 2 4 3 3 1 1 3 2 2 0 -0 -1 -2 -3 -4 -4
6 6 6 6 6 6 6 6 5 5 6 6 5 5 5 5 5 4 4 4 3 3 2 1 1 0 1 2 1 1 5 4 3 2 2 2 2 1 0 -1 -2 -3 -4 -5 -4